Location: Olmeneta
(45.2333°N, 10.0167°E)
Time: 06:11:49
(UTC+00:00)

Cosmos 2219 Rocket - Pass Details

Date: 03 March 2021
Orbit: 827 x 848 km, 71.0° (Epoch: 10 April)

Event Time Altitude Azimuth Distance (km) Brightness Sun altitude
Rises 19:23:37 0° 202° (SSW) 3,352 5.4 -24.1°
Reaches altitude 10° 19:26:02 10° 201° (SSW) 2,424 4.6 -24.5°
Maximum altitude 19:31:36 84° 114° (ESE) 840 2.0 -25.5°
Drops below altitude 10° 19:37:14 10° 27° (NNE) 2,451 4.5 -26.4°
Sets 19:39:41 0° 27° (NNE) 3,392 5.3 -26.8°
